Weather History for North Las Vegas, NV

Change the Weather History Date:

Sunday, May 25, 2014

  Actual Average Record
Temperature  
Mean Temperature 82 °F -  
Max Temperature 93 °F 93 °F 109 °F (1951)
Min Temperature 70 °F 64 °F 38 °F (1960)
Cooling Degree Days 16    
Growing Degree Days 32 (Base 50)    
Moisture  
Dew Point 37 °F    
Average Humidity 22    
Maximum Humidity 39    
Minimum Humidity 10    
Precipitation  
Precipitation 0.00 in - - ()
Sea Level Pressure  
Sea Level Pressure 29.86 in    
Wind  
Wind Speed 4 mph (SSE)    
Max Wind Speed 10 mph    
Max Gust Speed 16 mph    
Visibility 10 miles    
Events      
Averages and records for this station are not official NWS values.
T = Trace of Precipitation, MM = Missing Value Source: NWS Daily Summary

Daily Weather History Graph

Daily Weather History Graph

Search for Another Location

Airport:

Trip Planner

Search our weather history database for the weather conditions in past years. The results will help you decide how hot, cold, wet, or windy it might be!

Date:

Astronomy

May. 25, 2014 Rise Set
Actual Time 5:27 AM PDT 7:48 PM PDT
Civil Twilight 4:58 AM PDT 8:17 PM PDT
Nautical Twilight 4:22 AM PDT 8:53 PM PDT
Astronomical Twilight 3:42 AM PDT 9:33 PM PDT
Moon 3:28 AM PDT (5/25) 4:58 PM PDT (5/25)
Length of Visible Light 15h 18m
Length of Day
14h 20m
Waning Crescent, 10% of the Moon is Illuminated
May 25
Waning Crescent
May 28
New
Jun 5
First Quarter
Jun 12
Full
Jun 19
Last Quarter

Hourly Weather History & Observations

Time (PDT) Temp. Dew Point Humidity Pressure Visibility Wind Dir Wind Speed Gust Speed Precip Events Conditions
12:53 AM 75.0 °F 42.1 °F 31% 29.91 in 10.0 mi Calm Calm - N/A   Partly Cloudy
1:53 AM 73.9 °F 43.0 °F 33% 29.91 in 10.0 mi East 8.1 mph - N/A   Partly Cloudy
2:53 AM 73.9 °F 43.0 °F 33% 29.91 in 10.0 mi West 5.8 mph - N/A   Clear
3:53 AM 73.0 °F 45.0 °F 37% 29.91 in 10.0 mi West 5.8 mph - N/A   Clear
4:53 AM 72.0 °F 44.1 °F 37% 29.92 in 10.0 mi SE 3.5 mph - N/A   Clear
5:53 AM 70.0 °F 44.1 °F 39% 29.93 in 10.0 mi NW 3.5 mph - N/A   Clear
6:53 AM 73.0 °F 44.1 °F 35% 29.94 in 10.0 mi Calm Calm - N/A   Clear
7:53 AM 75.2 °F 42.8 °F 31% 29.95 in 10.0 mi Calm Calm - N/A   Clear
8:53 AM 79.0 °F 42.1 °F 27% 29.95 in 10.0 mi Calm Calm - N/A   Clear
9:53 AM 81.0 °F 41.0 °F 24% 29.94 in 10.0 mi Calm Calm - N/A   Clear
10:53 AM 84.0 °F 39.9 °F 21% 29.93 in 10.0 mi Calm Calm - N/A   Clear
11:53 AM 86.0 °F 39.0 °F 19% 29.90 in 10.0 mi ESE 4.6 mph - N/A   Clear
12:53 PM 88.0 °F 37.9 °F 17% 29.88 in 10.0 mi SE 9.2 mph - N/A   Clear
1:53 PM 90.0 °F 36.0 °F 15% 29.86 in 10.0 mi SE 6.9 mph 16.1 mph N/A   Clear
2:53 PM 91.0 °F 34.0 °F 13% 29.83 in 10.0 mi Variable 3.5 mph - N/A   Clear
3:53 PM 93.0 °F 30.9 °F 11% 29.80 in 10.0 mi SSE 10.4 mph - N/A   Clear
4:53 PM 93.0 °F 28.0 °F 10% 29.78 in 10.0 mi SE 6.9 mph - N/A   Clear
5:53 PM 93.0 °F 28.9 °F 10% 29.77 in 10.0 mi South 8.1 mph - N/A   Clear
6:53 PM 93.0 °F 28.0 °F 10% 29.77 in 10.0 mi SSE 8.1 mph - N/A   Clear
7:53 PM 90.0 °F 30.9 °F 12% 29.78 in 10.0 mi SE 6.9 mph - N/A   Clear
8:53 PM 87.1 °F 30.9 °F 13% 29.78 in 10.0 mi SE 4.6 mph - N/A   Clear
9:53 PM 84.0 °F 32.0 °F 15% 29.80 in 10.0 mi ESE 5.8 mph - N/A   Clear
10:53 PM 82.0 °F 34.0 °F 18% 29.80 in 10.0 mi North 4.6 mph - N/A   Clear
11:53 PM 81.0 °F 35.1 °F 19% 29.80 in 10.0 mi WNW 5.8 mph - N/A   Clear